Weather History for KABQ - January, 2014

Change the Weather History Date:

Tuesday, January 28, 2014

  Actual Average Record
Temperature  
Mean Temperature 38 °F 38 °F  
Max Temperature 51 °F 48 °F 70 °F (1903)
Min Temperature 25 °F 27 °F 5 °F (1948)
Degree Days  
Heating Degree Days 27 27  
Month to date heating degree days 744 804  
Since 1 July heating degree days 2538 2561  
Cooling Degree Days 0 0  
Month to date cooling degree days 0 0  
Year to date cooling degree days 0 0  
Moisture  
Dew Point 6 °F    
Average Humidity 34    
Maximum Humidity 53    
Minimum Humidity 15    
Precipitation  
Precipitation 0.00 in 0.01 in 0.17 in (2008)
Month to date precipitation 0.00 0.34  
Year to date precipitation 0.00 0.34  
Snow  
Snow 0.00 in - - ()
Month to date snowfall 0.0  
Since 1 July snowfall 4.9  
Snow Depth 0.00 in    
Sea Level Pressure  
Sea Level Pressure 30.09 in    
Wind  
Wind Speed 7 mph (NNW)    
Max Wind Speed 16 mph    
Max Gust Speed 18 mph    
Visibility 10 miles    
Events      
T = Trace of Precipitation, MM = Missing Value Source: NWS Daily Summary

Daily Weather History Graph

Daily Weather History Graph

Search for Another Location

Airport or City:

Trip Planner

Search our weather history database for the weather conditions in past years. The results will help you decide how hot, cold, wet, or windy it might be!

Date:

Astronomy

Jan. 28, 2014 Rise Set
Actual Time 7:08 AM MST 5:31 PM MST
Civil Twilight 6:41 AM MST 5:58 PM MST
Nautical Twilight 6:10 AM MST 6:28 PM MST
Astronomical Twilight 5:40 AM MST 6:58 PM MST
Moon 4:50 AM MST (1/28) 3:25 PM MST (1/28)
Length of Visible Light 11h 16m
Length of Day
10h 23m
Waning Crescent, 7% of the Moon is Illuminated
Jan 28
Waning Crescent
Jan 30
New
Feb 6
First Quarter
Feb 14
Full
Feb 22
Last Quarter

Hourly Weather History & Observations

Time (MST) Temp. Windchill Dew Point Humidity Pressure Visibility Wind Dir Wind Speed Gust Speed Precip Events Conditions
12:52 AM 33.1 °F 25.5 °F 12.0 °F 42% 29.95 in 10.0 mi South 9.2 mph - N/A   Partly Cloudy
1:52 AM 33.1 °F 28.7 °F 10.0 °F 38% 29.96 in 10.0 mi SSE 4.6 mph - N/A   Partly Cloudy
2:52 AM 30.9 °F 27.5 °F 8.1 °F 38% 29.99 in 10.0 mi SE 3.5 mph - N/A   Scattered Clouds
3:52 AM 30.9 °F 23.5 °F 15.1 °F 52% 30.00 in 10.0 mi North 8.1 mph - N/A   Scattered Clouds
4:52 AM 32.0 °F 27.5 °F 14.0 °F 48% 30.01 in 10.0 mi NE 4.6 mph - N/A   Scattered Clouds
5:52 AM 37.9 °F 31.5 °F 12.0 °F 35% 30.01 in 10.0 mi North 9.2 mph - N/A   Mostly Cloudy
6:52 AM 36.0 °F 28.0 °F 12.0 °F 37% 30.05 in 10.0 mi North 11.5 mph - N/A   Mostly Cloudy
7:52 AM 34.0 °F 25.5 °F 12.0 °F 40% 30.10 in 10.0 mi North 11.5 mph - N/A   Mostly Cloudy
8:52 AM 26.1 °F 18.4 °F 5.0 °F 41% 30.18 in 10.0 mi North 6.9 mph - N/A   Mostly Cloudy
9:52 AM 28.9 °F 19.8 °F 3.9 °F 35% 30.20 in 10.0 mi NNW 10.4 mph - N/A   Scattered Clouds
10:52 AM 34.0 °F 28.0 °F 5.0 °F 30% 30.20 in 10.0 mi NNW 6.9 mph - N/A   Scattered Clouds
11:52 AM 39.0 °F 32.8 °F 6.1 °F 26% 30.17 in 10.0 mi WNW 9.2 mph - N/A   Scattered Clouds
12:52 PM 46.0 °F 41.0 °F 9.0 °F 22% 30.09 in 10.0 mi North 10.4 mph - N/A   Partly Cloudy
1:52 PM 46.9 °F - 7.0 °F 20% 30.07 in 10.0 mi NW 4.6 mph - N/A   Clear
2:52 PM 48.9 °F - 6.1 °F 18% 30.06 in 10.0 mi Variable 5.8 mph - N/A   Clear
3:52 PM 48.9 °F - 5.0 °F 17% 30.06 in 10.0 mi Calm Calm - N/A   Clear
4:52 PM 48.9 °F - 5.0 °F 17% 30.07 in 10.0 mi West 4.6 mph - N/A   Clear
5:52 PM 46.0 °F 44.8 °F 6.1 °F 20% 30.08 in 10.0 mi WSW 3.5 mph - N/A   Clear
6:52 PM 45.0 °F 40.1 °F -0.0 °F 15% 30.10 in 10.0 mi NNW 9.2 mph - N/A   Clear
7:52 PM 42.1 °F 39.2 °F -0.0 °F 17% 30.15 in 10.0 mi West 4.6 mph - N/A   Clear
8:52 PM 39.9 °F 36.7 °F -2.9 °F 16% 30.21 in 10.0 mi NNE 4.6 mph - N/A   Clear
9:52 PM 39.0 °F 34.0 °F -5.1 °F 15% 30.20 in 10.0 mi North 6.9 mph - N/A   Clear
10:52 PM 37.9 °F 32.7 °F -2.0 °F 18% 30.16 in 10.0 mi NNE 6.9 mph - N/A   Clear
11:52 PM 36.0 °F 30.3 °F -0.0 °F 22% 30.15 in 10.0 mi West 6.9 mph - N/A   Clear